Location: Colossi of Memnon
(25.7167°N, 32.6167°E)
Time: 21:02:47
(UTC+00:00)

NOSS 3-4 (A) - Pass Details

Date: 05 March 2021
Orbit: 873 x 1339 km, 63.4° (Epoch: 20 April)

Event Time Altitude Azimuth Distance (km) Brightness Sun altitude
Exits shadow 03:31:23 - 241° (WSW) 2,844 5.4 -9.3°
Reaches altitude 10° 03:32:24 10° 246° (WSW) 2,514 5.1 -9.0°
Maximum altitude 03:37:18 28° 304° (NW) 1,583 4.2 -7.9°
Drops below altitude 10° 03:42:22 10° 3° (N) 2,598 5.8 -6.8°
Sets 03:45:20 0° 15° (NNE) 3,595 6.6 -6.1°
